| time (UTC) | temp C | wind direction | speed KPH | gust KPH | rain 1hr cm | rain 24hr cm | rain mn cm | humidity % | barometer mb |
| 20260505041445 | 24 | 133 | 0.0 | 0.0 | 0.00 | 0.00 | 0.00 | 99 | 1018.5 |
| 20260505040943 | 24 | 126 | 0.0 | 0.0 | 0.00 | 0.00 | 0.00 | 99 | 1018.5 |
| 20260505040440 | 24 | 123 | 0.0 | 0.0 | 0.00 | 0.00 | 0.00 | 99 | 1018.4 |
| 20260505035937 | 24 | 120 | 0.0 | 0.0 | 0.00 | 0.00 | 0.00 | 99 | 1018.4 |
| 20260505035433 | 24 | 126 | 0.0 | 0.0 | 0.00 | 0.00 | 0.00 | 99 | 1018.1 |
| 20260505034930 | 24 | 128 | 0.0 | 0.0 | 0.00 | 0.00 | 0.00 | 99 | 1018.5 |
| 20260505034426 | 24 | 131 | 0.0 | 0.0 | 0.00 | 0.00 | 0.00 | 99 | 1018.8 |
| 20260505033924 | 24 | 129 | 0.0 | 0.0 | 0.00 | 0.00 | 0.00 | 99 | 1018.6 |
| 20260505033420 | 24 | 122 | 0.0 | 0.0 | 0.00 | 0.00 | 0.00 | 99 | 1018.8 |
| 20260505032919 | 24 | 126 | 0.0 | 0.0 | 0.00 | 0.00 | 0.00 | 99 | 1018.8 |
| 20260505032415 | 24 | 121 | 0.0 | 0.0 | 0.00 | 0.00 | 0.00 | 99 | 1018.8 |
| 20260505031912 | 25 | 121 | 0.0 | 0.0 | 0.00 | 0.00 | 0.00 | 99 | 1018.6 |
| 20260505031409 | 25 | 125 | 0.0 | 0.0 | 0.00 | 0.00 | 0.00 | 99 | 1018.8 |
| 20260505030906 | 25 | 120 | 0.0 | 0.0 | 0.00 | 0.00 | 0.00 | 99 | 1018.9 |
| 20260505030402 | 25 | 127 | 0.0 | 0.0 | 0.00 | 0.00 | 0.00 | 99 | 1019.0 |
| 20260505025857 | 25 | 128 | 0.0 | 0.0 | 0.00 | 0.00 | 0.00 | 99 | 1018.7 |
| 20260505025355 | 25 | 121 | 0.0 | 0.0 | 0.00 | 0.00 | 0.00 | 99 | 1018.9 |
| 20260505024854 | 25 | 121 | 0.0 | 0.0 | 0.00 | 0.00 | 0.00 | 99 | 1018.7 |
| 20260505024351 | 25 | 121 | 0.0 | 0.0 | 0.00 | 0.00 | 0.00 | 98 | 1018.7 |
| 20260505023848 | 25 | 120 | 0.0 | 0.0 | 0.00 | 0.00 | 0.00 | 98 | 1018.7 |
| 20260505023345 | 25 | 131 | 0.0 | 0.0 | 0.00 | 0.00 | 0.00 | 98 | 1018.6 |
| 20260505022842 | 25 | 139 | 0.0 | 0.0 | 0.00 | 0.00 | 0.00 | 98 | 1018.9 |
| 20260505022339 | 25 | 138 | 0.0 | 0.0 | 0.00 | 0.00 | 0.00 | 98 | 1018.9 |
| 20260505021836 | 25 | 124 | 0.0 | 0.0 | 0.00 | 0.00 | 0.00 | 98 | 1018.7 |
| 20260505021332 | 25 | 120 | 0.0 | 0.0 | 0.00 | 0.00 | 0.00 | 97 | 1018.3 |
| 20260505020828 | 25 | 122 | 0.0 | 0.0 | 0.00 | 0.00 | 0.00 | 97 | 1018.3 |
| 20260505020324 | 25 | 117 | 0.0 | 0.0 | 0.00 | 0.00 | 0.00 | 96 | 1018.6 |
| 20260505015821 | 25 | 134 | 0.0 | 0.0 | 0.00 | 0.00 | 0.00 | 96 | 1018.2 |
| 20260505015318 | 25 | 133 | 0.0 | 0.0 | 0.00 | 0.00 | 0.00 | 96 | 1018.6 |
| 20260505014815 | 25 | 126 | 0.0 | 0.0 | 0.00 | 0.00 | 0.00 | 96 | 1018.4 |
| 20260505014312 | 26 | 132 | 0.0 | 0.0 | 0.00 | 0.00 | 0.00 | 95 | 1018.2 |
| 20260505013809 | 26 | 128 | 0.0 | 0.0 | 0.00 | 0.00 | 0.00 | 95 | 1018.1 |
| 20260505013306 | 26 | 128 | 0.0 | 0.0 | 0.00 | 0.00 | 0.00 | 94 | 1018.2 |
| 20260505012805 | 26 | 129 | 0.0 | 0.0 | 0.00 | 0.00 | 0.00 | 94 | 1018.1 |
| 20260505012304 | 26 | 123 | 0.0 | 0.0 | 0.00 | 0.00 | 0.00 | 94 | 1018.2 |
| 20260505011757 | 26 | 129 | 0.0 | 0.0 | 0.00 | 0.00 | 0.00 | 94 | 1018.3 |
| 20260505011255 | 26 | 130 | 0.0 | 0.0 | 0.00 | 0.00 | 0.00 | 94 | 1018.2 |
| 20260505010750 | 26 | 123 | 0.0 | 1.6 | 0.00 | 0.00 | 0.00 | 94 | 1018.1 |
| 20260505010247 | 26 | 124 | 0.0 | 1.6 | 0.00 | 0.00 | 0.00 | 95 | 1017.9 |
| 20260505005743 | 26 | 125 | 0.0 | 1.6 | 0.00 | 0.00 | 0.00 | 95 | 1018.0 |
| 20260505005240 | 26 | 124 | 1.6 | 1.6 | 0.00 | 0.00 | 0.00 | 94 | 1017.8 |
| 20260505004737 | 26 | 120 | 0.0 | 0.0 | 0.00 | 0.00 | 0.00 | 95 | 1018.0 |
| 20260505004233 | 26 | 123 | 0.0 | 1.6 | 0.00 | 0.00 | 0.00 | 94 | 1017.8 |
| 20260505003731 | 26 | 128 | 0.0 | 1.6 | 0.00 | 0.00 | 0.00 | 94 | 1017.7 |
| 20260505003229 | 26 | 121 | 0.0 | 0.0 | 0.00 | 0.00 | 0.00 | 94 | 1017.7 |
| 20260505002725 | 26 | 120 | 0.0 | 0.0 | 0.00 | 0.00 | 0.00 | 94 | 1017.8 |
| 20260505002222 | 26 | 125 | 0.0 | 0.0 | 0.00 | 0.00 | 0.00 | 93 | 1017.9 |
| 20260505001720 | 26 | 123 | 0.0 | 0.0 | 0.00 | 0.00 | 0.00 | 93 | 1017.7 |
| 20260505001217 | 26 | 121 | 0.0 | 0.0 | 0.00 | 0.00 | 0.00 | 92 | 1017.7 |
| 20260505000714 | 26 | 129 | 0.0 | 0.0 | 0.00 | 0.00 | 0.00 | 92 | 1017.4 |
| 20260505000212 | 26 | 100 | 0.0 | 0.0 | 0.00 | 0.00 | 0.00 | 91 | 1017.3 |
| 20260504235708 | 26 | 119 | 0.0 | 0.0 | 0.00 | 0.00 | 0.00 | 90 | 1017.2 |
| 20260504235204 | 26 | 123 | 0.0 | 0.0 | 0.00 | 0.00 | 0.00 | 90 | 1017.5 |
| 20260504234702 | 26 | 115 | 0.0 | 0.0 | 0.00 | 0.00 | 0.00 | 90 | 1017.5 |
| 20260504234159 | 26 | 121 | 0.0 | 1.6 | 0.00 | 0.00 | 0.00 | 89 | 1017.3 |
| 20260504233654 | 26 | 124 | 0.0 | 0.0 | 0.00 | 0.00 | 0.00 | 88 | 1017.2 |
| 20260504233150 | 27 | 113 | 0.0 | 1.6 | 0.00 | 0.00 | 0.00 | 87 | 1017.3 |
| 20260504232648 | 27 | 122 | 0.0 | 0.0 | 0.00 | 0.00 | 0.00 | 86 | 1017.1 |
| 20260504232145 | 27 | 117 | 0.0 | 1.6 | 0.00 | 0.00 | 0.00 | 86 | 1017.5 |
| 20260504231642 | 27 | 121 | 0.0 | 0.0 | 0.00 | 0.00 | 0.00 | 83 | 1017.0 |
| 20260504231138 | 27 | 115 | 0.0 | 1.6 | 0.00 | 0.00 | 0.00 | 80 | 1017.2 |
| 20260504230634 | 28 | 114 | 1.6 | 1.6 | 0.00 | 0.00 | 0.00 | 80 | 1017.2 |
| 20260504230133 | 27 | 128 | 0.0 | 1.6 | 0.00 | 0.00 | 0.00 | 79 | 1017.1 |
| 20260504225631 | 28 | 133 | 0.0 | 1.6 | 0.00 | 0.00 | 0.00 | 82 | 1017.2 |
| 20260504225127 | 28 | 118 | 0.0 | 0.0 | 0.00 | 0.00 | 0.00 | 80 | 1017.1 |
| 20260504224624 | 28 | 93 | 0.0 | 1.6 | 0.00 | 0.00 | 0.00 | 82 | 1017.1 |
| 20260504224121 | 28 | 103 | 3.2 | 3.2 | 0.00 | 0.00 | 0.00 | 82 | 1017.0 |
| 20260504223618 | 28 | 143 | 1.6 | 1.6 | 0.00 | 0.00 | 0.00 | 82 | 1017.1 |
| 20260504223114 | 28 | 150 | 1.6 | 3.2 | 0.00 | 0.00 | 0.00 | 83 | 1017.0 |
| 20260504222611 | 28 | 133 | 1.6 | 3.2 | 0.00 | 0.00 | 0.00 | 82 | 1016.9 |
| 20260504222108 | 28 | 119 | 0.0 | 1.6 | 0.00 | 0.00 | 0.00 | 81 | 1016.9 |
| 20260504221605 | 28 | 142 | 1.6 | 3.2 | 0.00 | 0.00 | 0.00 | 81 | 1016.5 |
| 20260504221102 | 28 | 83 | 1.6 | 3.2 | 0.00 | 0.00 | 0.00 | 82 | 1016.8 |
| 20260504220558 | 28 | 117 | 1.6 | 3.2 | 0.00 | 0.00 | 0.00 | 82 | 1016.7 |
| 20260504220055 | 28 | 111 | 0.0 | 3.2 | 0.00 | 0.00 | 0.00 | 79 | 1016.4 |
| 20260504215552 | 29 | 65 | 3.2 | 3.2 | 0.00 | 0.00 | 0.00 | 75 | 1016.4 |
| 20260504215050 | 29 | 133 | 0.0 | 1.6 | 0.00 | 0.00 | 0.00 | 70 | 1016.4 |
| 20260504214545 | 30 | 136 | 0.0 | 3.2 | 0.00 | 0.00 | 0.00 | 70 | 1016.3 |
| 20260504214042 | 30 | 165 | 4.8 | 8.0 | 0.00 | 0.00 | 0.00 | 68 | 1016.3 |
| 20260504213538 | 30 | 126 | 3.2 | 4.8 | 0.00 | 0.00 | 0.00 | 68 | 1016.0 |
| 20260504213035 | 30 | 269 | 4.8 | 11.3 | 0.00 | 0.00 | 0.00 | 68 | 1016.1 |
| 20260504212531 | 30 | 216 | 4.8 | 9.7 | 0.00 | 0.00 | 0.00 | 68 | 1016.2 |
| 20260504212029 | 30 | 151 | 1.6 | 8.0 | 0.00 | 0.00 | 0.00 | 67 | 1016.1 |
| 20260504211525 | 30 | 177 | 4.8 | 12.9 | 0.00 | 0.00 | 0.00 | 66 | 1016.0 |
| 20260504211023 | 30 | 153 | 3.2 | 8.0 | 0.00 | 0.00 | 0.00 | 66 | 1016.1 |
| 20260504210519 | 30 | 252 | 8.0 | 20.9 | 0.00 | 0.00 | 0.00 | 66 | 1016.2 |
| 20260504210016 | 30 | 140 | 4.8 | 14.5 | 0.00 | 0.00 | 0.00 | 66 | 1016.0 |
| 20260504205514 | 30 | 224 | 6.4 | 12.9 | 0.00 | 0.00 | 0.00 | 66 | 1016.2 |
| 20260504205012 | 30 | 252 | 8.0 | 14.5 | 0.00 | 0.00 | 0.00 | 65 | 1015.9 |
| 20260504204510 | 31 | 157 | 4.8 | 8.0 | 0.00 | 0.00 | 0.00 | 64 | 1016.1 |
| 20260504204009 | 31 | 169 | 4.8 | 9.7 | 0.00 | 0.00 | 0.00 | 64 | 1016.1 |
| 20260504203506 | 31 | 276 | 8.0 | 17.7 | 0.00 | 0.00 | 0.00 | 64 | 1016.1 |
| 20260504203003 | 31 | 121 | 4.8 | 14.5 | 0.00 | 0.00 | 0.00 | 65 | 1016.3 |
| 20260504202458 | 31 | 204 | 6.4 | 16.1 | 0.00 | 0.00 | 0.00 | 63 | 1016.2 |
| 20260504201955 | 31 | 134 | 1.6 | 12.9 | 0.00 | 0.00 | 0.00 | 64 | 1016.4 |
| 20260504201453 | 31 | 215 | 9.7 | 20.9 | 0.00 | 0.00 | 0.00 | 63 | 1016.0 |
| 20260504200950 | 31 | 249 | 9.7 | 14.5 | 0.00 | 0.00 | 0.00 | 61 | 1016.2 |
| 20260504200447 | 31 | 237 | 12.9 | 17.7 | 0.00 | 0.00 | 0.00 | 62 | 1016.0 |
| 20260504195943 | 32 | 152 | 6.4 | 14.5 | 0.00 | 0.00 | 0.00 | 60 | 1016.2 |
| 20260504195439 | 31 | 200 | 9.7 | 17.7 | 0.00 | 0.00 | 0.00 | 62 | 1016.2 |
| 20260504194936 | 31 | 182 | 6.4 | 12.9 | 0.00 | 0.00 | 0.00 | 61 | 1016.1 |
| 20260504194432 | 32 | 218 | 4.8 | 12.9 | 0.00 | 0.00 | 0.00 | 62 | 1016.2 |
| 20260504193928 | 32 | 233 | 9.7 | 17.7 | 0.00 | 0.00 | 0.00 | 60 | 1016.4 |
| 20260504193426 | 32 | 220 | 8.0 | 12.9 | 0.00 | 0.00 | 0.00 | 61 | 1016.3 |
| 20260504192924 | 31 | 235 | 11.3 | 17.7 | 0.00 | 0.00 | 0.00 | 62 | 1016.2 |
| 20260504192421 | 32 | 240 | 6.4 | 16.1 | 0.00 | 0.00 | 0.00 | 61 | 1016.1 |
| 20260504191920 | 32 | 218 | 11.3 | 20.9 | 0.00 | 0.00 | 0.00 | 61 | 1016.3 |
| 20260504191418 | 32 | 155 | 6.4 | 12.9 | 0.00 | 0.00 | 0.00 | 61 | 1016.4 |
| 20260504190913 | 32 | 257 | 9.7 | 22.5 | 0.00 | 0.00 | 0.00 | 61 | 1016.2 |
| 20260504190408 | 33 | 138 | 4.8 | 11.3 | 0.00 | 0.00 | 0.00 | 57 | 1016.2 |
| 20260504185906 | 32 | 183 | 6.4 | 14.5 | 0.00 | 0.00 | 0.00 | 58 | 1016.3 |
| 20260504185403 | 33 | 254 | 6.4 | 11.3 | 0.00 | 0.00 | 0.00 | 56 | 1016.3 |
| 20260504184858 | 33 | 188 | 9.7 | 16.1 | 0.00 | 0.00 | 0.00 | 57 | 1016.3 |
| 20260504184354 | 32 | 175 | 4.8 | 11.3 | 0.00 | 0.00 | 0.00 | 56 | 1016.2 |
| 20260504183850 | 32 | 231 | 9.7 | 14.5 | 0.00 | 0.00 | 0.00 | 57 | 1016.4 |
| 20260504183348 | 33 | 261 | 16.1 | 22.5 | 0.00 | 0.00 | 0.00 | 55 | 1016.1 |
| 20260504182845 | 33 | 176 | 3.2 | 16.1 | 0.00 | 0.00 | 0.00 | 55 | 1016.3 |
| 20260504182343 | 33 | 137 | 8.0 | 12.9 | 0.00 | 0.00 | 0.00 | 53 | 1016.3 |
| 20260504181839 | 32 | 253 | 12.9 | 17.7 | 0.00 | 0.00 | 0.00 | 55 | 1016.6 |
| 20260504181337 | 32 | 217 | 8.0 | 17.7 | 0.00 | 0.00 | 0.00 | 55 | 1016.7 |
| 20260504180836 | 32 | 206 | 8.0 | 22.5 | 0.00 | 0.00 | 0.00 | 55 | 1016.6 |
| 20260504180334 | 32 | 298 | 14.5 | 20.9 | 0.00 | 0.00 | 0.00 | 54 | 1016.7 |
| 20260504175832 | 32 | 252 | 11.3 | 14.5 | 0.00 | 0.00 | 0.00 | 53 | 1016.8 |
| 20260504175328 | 32 | 208 | 8.0 | 14.5 | 0.00 | 0.00 | 0.00 | 51 | 1016.9 |
| 20260504174826 | 32 | 208 | 6.4 | 16.1 | 0.00 | 0.00 | 0.00 | 50 | 1016.8 |
| 20260504174324 | 32 | 254 | 8.0 | 24.1 | 0.00 | 0.00 | 0.00 | 51 | 1017.0 |
| 20260504173820 | 33 | 203 | 11.3 | 20.9 | 0.00 | 0.00 | 0.00 | 50 | 1017.1 |
| 20260504173317 | 33 | 237 | 9.7 | 12.9 | 0.00 | 0.00 | 0.00 | 48 | 1016.9 |
| 20260504172814 | 33 | 128 | 3.2 | 9.7 | 0.00 | 0.00 | 0.00 | 48 | 1017.1 |
| 20260504172311 | 33 | 227 | 8.0 | 8.0 | 0.00 | 0.00 | 0.00 | 47 | 1017.4 |
| 20260504171807 | 33 | 245 | 9.7 | 14.5 | 0.00 | 0.00 | 0.00 | 47 | 1017.1 |
| 20260504171304 | 33 | 229 | 6.4 | 12.9 | 0.00 | 0.00 | 0.00 | 49 | 1017.3 |
| 20260504170801 | 33 | 216 | 4.8 | 14.5 | 0.00 | 0.00 | 0.00 | 48 | 1017.3 |
| 20260504170258 | 33 | 66 | 4.8 | 14.5 | 0.00 | 0.00 | 0.00 | 49 | 1017.3 |
| 20260504160216 | 33 | 223 | 4.8 | 17.7 | 0.00 | 0.00 | 0.00 | 56 | 1017.6 |
| 20260504151144 | 31 | 143 | 14.5 | 24.1 | 0.00 | 0.00 | 0.00 | 59 | 1017.9 |
| 20260504150641 | 32 | 218 | 8.0 | 16.1 | 0.00 | 0.00 | 0.00 | 56 | 1018.2 |
| 20260504150138 | 32 | 191 | 4.8 | 12.9 | 0.00 | 0.00 | 0.00 | 55 | 1018.1 |
| 20260504141107 | 31 | 123 | 1.6 | 3.2 | 0.00 | 0.00 | 0.00 | 67 | 1018.0 |
| 20260504140604 | 31 | 93 | 1.6 | 8.0 | 0.00 | 0.00 | 0.00 | 70 | 1018.0 |
| 20260504130528 | 30 | 148 | 4.8 | 4.8 | 0.00 | 0.00 | 0.00 | 70 | 1017.9 |
| 20260504110415 | 25 | 135 | 0.0 | 0.0 | 0.00 | 0.00 | 0.00 | 86 | 1018.2 |
| 20260504100332 | 21 | 135 | 0.0 | 0.0 | 0.00 | 0.00 | 0.00 | 99 | 1017.6 |
| 20260504081726 | 22 | 131 | 0.0 | 0.0 | 0.00 | 0.00 | 0.00 | 94 | 1017.1 |
| 20260504081222 | 22 | 133 | 1.6 | 3.2 | 0.00 | 0.00 | 0.00 | 93 | 1017.1 |
| 20260504080718 | 22 | 130 | 0.0 | 0.0 | 0.00 | 0.00 | 0.00 | 94 | 1016.8 |
| 20260504080215 | 23 | 131 | 0.0 | 0.0 | 0.00 | 0.00 | 0.00 | 93 | 1017.1 |
| 20260504070142 | 23 | 102 | 1.6 | 3.2 | 0.00 | 0.00 | 0.00 | 91 | 1017.0 |
| 20260504050531 | 23 | 119 | 0.0 | 1.6 | 0.00 | 0.00 | 0.00 | 90 | 1017.9 |